Regional Weather Roundup
Issued by NWS

Home | Current Version | Previous Version | Graphics & Text | Print | Product List | Glossary On
Versions: 1 2 3 4 5 6 7 8 9 10 11 12 13 14 15 16 17 18 19 20 21 22 23 24 25 26 27 28 29 30 31 32 33 34 35 36 37 38 39 40 41 42 43 44 45 46 47 48 49 50
000
ASUS45 KABQ 270110
RWRNM
NEW MEXICO REGIONAL WEATHER ROUNDUP
NATIONAL WEATHER SERVICE ALBUQUERQUE NM
700 PM MDT WED APR 26 2017

NOTE: "FAIR" MEANS FEW OR NO CLOUDS BELOW 12,000 FEET AGL WITH NO
       SIGNIFICANT WEATHER OR OBSTRUCTIONS TO VISION.

      THIS PRODUCT IS RELEASED AS TWO VERSIONS.  ONE VERSION NEAR
      THE TOP OF THE HOUR CONTAINING PRELIMINARY DATA FROM ALBUQUERQUE
      AND OTHER STATIONS.  A FINAL VERSION WITH ADDITIONAL DATA IS
      ISSUED ABOUT 10 MINUTES AFTER THE HOUR.

NMZ501-503-504-510>518-270200-
NORTHWEST PLATEAU/NORTHCENTRAL MOUNTAINS

CITY           SKY/WX    TMP DP  RH WIND       PRES   REMARKS
FARMINGTON     FAIR      59  16  18 NW10      29.76F
LOS ALAMOS     FAIR      51  17  25 W6        29.84S
SANTA FE       FAIR      58  18  21 W15G26    29.79F
TAOS             N/A     52  14  22 W18       29.82R
ANGEL FIRE     MOCLDY    43  18  35 W14       29.84S

$$
NMZ402-403-502-505>509-270200-
WESTCENTRAL MOUNTAINS/SOUTHWEST MOUNTAINS

CITY           SKY/WX    TMP DP  RH WIND       PRES   REMARKS
GALLUP         PTSUNNY   60  18  19 W18G26    29.83F
GRANTS         FAIR      58  13  16 NW15G22   29.85F
SILVER CITY    FAIR      69  16  13 W24G36    29.86R

$$
NMZ407-409-411-412-270200-
SOUTHERN DESERTS

CITY           SKY/WX    TMP DP  RH WIND       PRES   REMARKS
DEMING         FAIR      76  13   9 W29G36    29.78F
LAS CRUCES     FAIR      75  15  10 W26G33    29.78F
HOLLOMAN AFB   FAIR      73  13  10 SE8       29.78F
ALAMOGORDO     FAIR      66  23  19 SE9       29.77F
T OR C         FAIR      75  13   9 VRB3      29.73F

$$
NMZ519>523-270200-
CENTRAL VALLEYS/CENTRAL HIGHLANDS

CITY           SKY/WX    TMP DP  RH WIND       PRES   REMARKS
ALBUQUERQUE    MOCLDY    66  19  16 W15       29.77F
DOUBLE EAGLE   MOCLDY    63  25  23 W13       29.80F
MORIARTY ARPT  FAIR      62  17  18 W8G16     29.82S
CLINES CORNERS FAIR      54  15  21 W25G31    29.83F
BELEN          CLOUDY    67  12  11 W17G24    29.78S
SOCORRO        MOCLDY    71  14  11 E15G21    29.74F

$$
NMZ524>526-539-540-270200-
SOUTHCENTRAL MOUNTAINS

CITY           SKY/WX    TMP DP  RH WIND       PRES   REMARKS
RUIDOSO        FAIR      57  10  15 SW15      29.88S

$$
NMZ527>531-270200-
NORTHEAST HIGHLANDS/NORTHEAST PLAINS

CITY           SKY/WX    TMP DP  RH WIND       PRES   REMARKS
LAS VEGAS      FAIR      53  19  26 W16G24    29.80R
RATON          MOCLDY    55  22  27 NW10      29.72R
CLAYTON        MOCLDY    52  31  44 E6        29.74S

$$
NMZ532>537-270200-
EASTCENTRAL PLAINS

CITY           SKY/WX    TMP DP  RH WIND       PRES   REMARKS
SANTA ROSA     FAIR      66  16  14 W21G30    29.71R
TUCUMCARI      FAIR      63  36  36 E17       29.68S
CANNON AFB     MOCLDY    65  28  24 S12       29.72S
CLOVIS AIRPORT FAIR      61  30  31 SE9       29.73S

$$
NMZ028-029-538-270200-
SOUTHEAST PLAINS

CITY           SKY/WX    TMP DP  RH WIND       PRES   REMARKS
ROSWELL        FAIR      72  28  19 S13       29.74S
ARTESIA        FAIR      72  30  21 SE14      29.73F
CARLSBAD       FAIR      76   9   7 SW14      29.71F
HOBBS          FAIR      68  25  19 S7        29.77S


$$




USA.gov is the U.S. government's official web portal to all federal, state and local government web resources and services.